GFSFLT2_500_rhum_243.txt.gz
RH
15 15 14 15 15 11 9 8 8 8 7 6 6 7 8 11 12 12 14 18 18 19 18 13 13 14 16 21 24 22 20 19
24 23 18 18 18 16 16 16 14 13 12 10 11 12 12 14 17 15 14 13 16 18 18 20 20 19 19 18 21 21 17 17
23 24 26 25 21 18 19 20 22 25 32 41 52 56 51 62 47 25 17 15 14 18 22 23 22 26 25 23 19 17 18 26
30 29 27 29 25 25 30 35 46 53 50 41 51 60 76 69 63 86 78 54 33 23 24 29 31 30 29 35 31 25 32 39
30 30 30 29 22 20 23 29 39 42 42 44 52 76 93 91 89 67 57 69 68 63 58 57 52 48 41 30 35 35 40 51
27 23 24 23 28 28 26 31 29 30 29 36 69 61 60 52 54 70 75 80 84 91 85 79 87 82 75 66 51 53 59 56
33 32 28 27 27 25 26 34 27 29 31 38 50 55 60 60 61 65 68 65 61 66 88 92 78 60 57 60 73 79 68 65
46 45 57 50 41 40 38 36 40 40 33 35 39 48 52 53 55 55 55 52 50 51 52 58 53 53 52 49 55 59 58 46
56 63 88 88 67 59 58 46 45 48 49 48 46 47 47 46 43 44 44 42 42 40 39 40 39 37 36 37 40 47 52 48
73 84 98 96 87 82 63 52 58 54 58 58 56 52 45 43 46 46 47 48 46 47 47 43 40 38 37 36 34 32 33 36
100 96 97 94 96 87 80 64 54 57 58 58 56 55 54 51 48 44 41 40 40 42 42 42 41 38 37 37 36 37 38 38
95 98 97 99 99 97 89 89 88 74 64 56 54 52 49 45 42 40 42 45 42 40 41 42 41 36 34 31 32 34 32 30
100 97 92 98 96 78 97 96 95 88 88 72 58 53 49 47 47 44 41 44 42 39 38 36 35 34 34 35 37 35 34 33
100 99 97 97 99 92 91 97 99 100 93 86 75 64 60 57 57 59 52 52 54 56 52 47 44 42 36 35 33 33 31 29
89 87 81 82 82 75 77 82 77 96 95 79 70 71 83 75 72 70 68 67 68 63 57 52 51 49 43 40 35 30 27 25
90 82 74 78 70 67 66 82 96 98 96 98 83 80 87 85 70 76 77 72 72 69 61 56 50 47 47 45 39 36 33 27
96 91 97 92 95 95 98 94 96 96 99 96 75 83 86 91 79 86 87 87 86 79 64 53 50 50 48 40 36 34 32 31
85 94 97 97 96 96 97 97 97 96 97 96 97 96 95 91 91 88 86 83 73 65 60 56 53 45 39 31 24 18 13 14
54 70 89 98 100 98 98 97 97 96 96 96 96 96 93 94 94 88 89 85 72 61 54 44 34 25 17 14 11 10 8 8
50 51 58 94 97 98 98 97 96 97 96 96 97 97 97 96 94 89 74 68 61 48 32 20 13 10 7 5 5 5 4 4

GFSFLT2_500_rhum_246.txt.gz
RH
22 22 18 13 11 12 11 11 12 11 10 10 10 11 12 11 13 16 17 15 14 14 16 19 19 17 18 20 21 22 21 19
33 30 27 24 21 19 17 13 12 15 15 16 18 20 18 15 17 23 22 16 16 16 16 17 22 26 26 24 23 24 22 20
42 46 41 35 31 29 24 24 24 28 30 37 41 40 39 44 56 64 57 45 23 23 20 20 24 29 29 29 32 25 22 22
37 43 56 48 36 31 33 28 26 28 37 50 55 50 45 42 60 77 78 74 86 74 63 51 38 33 32 37 35 36 38 33
38 34 33 37 42 44 39 33 28 32 34 38 44 47 42 55 80 73 68 90 72 67 68 75 85 72 54 53 56 47 39 41
52 43 31 33 33 41 51 45 42 35 35 35 35 41 44 71 73 59 55 53 58 63 65 70 72 80 90 77 71 70 66 42
68 50 54 39 45 47 50 55 55 57 69 63 62 84 71 61 65 59 56 57 57 54 58 56 56 61 72 78 62 56 54 66
64 55 50 46 50 55 54 44 48 48 64 70 79 85 80 63 66 58 57 58 53 48 47 44 42 43 53 59 63 48 49 48
60 56 54 56 62 73 77 83 69 51 47 55 54 52 56 53 55 57 56 51 51 56 54 50 48 48 46 46 45 45 45 42
78 67 69 81 90 96 99 94 85 90 63 47 45 51 49 46 45 45 46 43 47 52 54 53 49 48 47 46 41 40 41 41
96 95 99 98 99 93 90 90 82 63 58 54 47 44 46 45 44 42 43 48 50 48 47 48 49 46 43 43 41 42 42 39
95 86 90 89 88 90 88 80 61 86 95 90 69 73 64 56 51 49 53 54 53 52 52 50 49 50 48 44 40 38 35 33
97 97 93 91 93 79 69 63 74 96 84 94 92 92 66 49 52 56 60 59 60 57 50 49 49 46 48 47 48 48 46 42
82 78 83 95 99 97 97 96 90 64 67 65 65 86 96 93 80 74 59 54 56 53 49 55 52 50 50 50 52 50 48 46
86 92 94 92 82 77 77 77 80 85 94 92 84 83 86 85 98 96 97 74 68 64 63 57 61 65 67 66 62 58 52 48
64 64 75 88 99 97 99 97 98 98 96 97 96 97 89 94 96 87 95 90 90 88 85 84 87 85 84 85 79 67 54 48
67 59 52 52 58 74 93 97 96 96 95 95 98 97 98 98 96 97 97 96 97 97 91 91 83 79 81 83 75 66 54 48
57 53 52 47 43 44 51 82 97 97 98 97 98 97 98 98 98 97 97 97 97 94 91 87 83 76 73 69 62 56 48 42
55 46 40 39 41 47 56 65 100 98 96 97 94 94 94 95 95 96 91 91 95 91 85 80 77 71 63 55 47 39 31 25
53 45 48 53 63 57 64 73 69 100 99 96 97 98 94 95 94 92 90 88 85 82 81 77 71 60 52 41 32 21 15 12

GFSFLT2_500_rhum_252.txt.gz
RH
10 10 12 16 16 16 14 12 10 8 7 6 6 6 6 6 6 6 7 7 8 8 9 11 12 12 15 16 20 21 20 17
20 17 14 15 16 22 22 19 16 15 14 16 16 15 15 15 16 22 35 40 32 27 20 15 17 16 17 17 16 20 21 20
16 20 16 18 27 28 25 30 23 22 26 30 30 29 31 36 47 61 61 60 56 51 61 70 54 30 19 19 21 27 30 30
31 22 24 18 17 32 29 28 30 31 30 32 41 39 47 66 65 52 51 60 66 59 74 79 78 46 29 41 36 37 36 38
42 60 62 54 48 38 34 30 31 35 49 57 60 64 70 72 75 69 84 63 68 50 76 77 73 76 84 67 67 65 74 77
52 63 68 62 69 77 70 72 44 37 64 71 90 71 79 76 75 83 78 84 62 46 83 86 69 82 91 75 90 93 94 96
79 91 84 71 70 89 99 98 90 85 88 94 90 89 85 69 86 88 89 82 90 91 90 68 62 55 56 56 58 75 80 70
84 80 70 66 84 97 100 95 100 100 96 93 86 92 84 81 81 82 74 70 65 62 57 64 74 57 54 49 45 43 44 42
71 84 66 66 99 92 97 98 96 98 78 68 60 67 77 62 66 67 74 74 71 66 58 56 55 45 46 45 41 39 47 47
76 70 71 77 93 90 85 86 90 88 64 67 86 92 90 100 90 76 69 65 71 62 56 54 57 55 49 43 41 41 45 49
76 84 89 96 98 97 94 92 95 88 78 94 99 97 95 93 84 89 71 69 86 89 86 64 58 52 52 52 47 42 43 45
62 80 92 93 86 90 95 97 98 98 99 96 95 95 96 98 79 89 76 70 80 99 93 99 72 82 79 75 72 62 57 51
84 85 77 76 75 78 82 91 88 84 95 96 96 98 98 95 83 97 96 75 81 93 85 94 67 69 75 92 86 84 72 63
81 75 63 57 57 57 58 64 72 76 87 83 79 80 86 93 98 97 97 92 90 95 86 91 98 98 90 74 95 100 82 80
70 70 66 60 50 44 46 52 60 67 64 60 55 55 52 57 64 64 83 95 98 99 96 93 97 98 92 86 88 94 88 95
67 67 54 33 36 34 29 32 42 48 57 60 57 50 42 40 52 67 66 70 86 90 94 97 96 99 93 93 85 86 87 91
55 47 38 45 48 34 24 23 26 36 48 53 54 45 44 50 54 55 59 97 87 92 94 95 97 97 99 97 96 97 93 81
52 48 44 46 40 36 24 14 22 36 44 46 44 43 48 58 65 72 78 75 90 95 97 98 98 97 97 98 98 98 98 94
65 62 55 48 29 16 13 13 40 49 51 49 56 52 61 75 84 90 98 100 98 94 87 84 94 95 96 97 96 96 96 95
62 47 17 10 10 23 22 25 44 61 67 72 66 67 84 93 96 96 97 96 100 99 97 98 98 99 99 97 96 90 88 88

GFSFLT2_500_rhum_255.txt.gz
RH
10 11 14 16 19 18 17 15 10 7 6 6 6 6 6 7 7 8 8 8 8 9 11 11 12 12 12 13 16 17 17 16
20 19 16 14 13 17 19 20 20 16 14 12 10 9 8 9 11 12 14 14 17 23 30 32 29 30 22 17 16 16 17 17
36 21 22 21 18 16 19 22 21 24 30 26 19 18 18 22 26 30 32 45 58 62 61 55 49 53 58 57 33 22 19 18
80 46 36 36 34 34 41 45 44 38 26 21 24 28 31 37 38 48 63 87 91 83 62 71 62 70 80 78 74 32 24 30
79 81 84 77 69 62 61 61 58 54 42 32 43 53 64 54 62 70 60 76 76 68 69 84 80 67 80 85 91 52 60 78
95 95 96 91 92 82 93 94 94 95 79 72 74 71 85 86 88 82 72 81 93 97 91 84 76 69 94 97 89 94 82 90
97 95 96 82 82 79 92 95 97 97 98 97 90 96 96 98 92 91 96 95 97 96 96 89 95 94 95 79 71 61 81 76
81 92 100 97 90 95 91 94 92 93 97 94 98 97 95 94 86 85 82 90 93 86 86 87 79 76 78 77 80 69 56 53
70 84 99 91 93 91 97 99 98 97 85 91 96 95 94 79 72 71 70 74 70 78 78 84 95 79 62 59 68 72 57 49
52 52 61 74 92 98 100 98 97 96 97 97 87 95 91 85 75 62 75 87 91 93 78 76 69 63 53 54 55 58 58 55
45 48 64 77 91 97 96 95 92 95 95 96 98 98 98 93 87 88 89 93 90 100 95 72 69 79 98 74 64 67 55 54
50 54 62 74 80 67 61 59 60 62 63 66 73 77 93 94 89 95 97 94 86 92 95 87 80 68 72 99 98 93 72 65
57 64 71 65 65 65 66 60 44 37 36 45 54 55 65 73 73 76 92 92 91 94 92 90 95 82 68 80 100 98 86 64
66 70 68 63 63 64 57 31 41 36 30 26 29 37 44 50 59 61 60 58 71 84 91 86 98 96 89 81 90 96 97 93
73 68 61 55 54 51 39 34 44 29 34 36 26 17 24 45 53 51 52 50 44 49 72 91 91 95 91 92 92 88 89 96
63 64 61 52 46 41 35 36 44 45 41 23 14 12 13 23 40 53 54 50 52 54 54 70 79 97 93 91 93 94 97 100
61 62 63 58 58 63 58 54 49 32 8 8 10 13 24 31 41 48 59 73 82 80 78 75 67 69 96 96 96 95 95 87
59 66 68 68 60 54 37 13 9 10 11 15 19 34 48 50 55 65 69 77 80 86 93 95 96 95 88 92 88 96 98 92
8 9 13 14 11 14 28 42 54 58 63 62 61 63 74 79 77 74 74 75 77 80 86 94 95 94 93 97 96 94 92 95
8 10 13 23 32 42 60 63 64 63 66 66 65 64 63 63 64 64 64 65 66 68 71 81 91 94 93 92 93 97 97 98

GFSFLT2_500_rhum_258.txt.gz
RH
33 32 24 24 24 22 19 16 11 9 9 8 8 9 9 10 10 8 8 8 7 7 7 7 8 9 9 10 9 8 10 14
70 38 39 37 29 22 19 18 18 18 19 18 15 12 11 12 17 15 14 14 16 14 17 22 21 21 26 27 34 32 24 20
96 87 40 40 38 39 31 34 32 27 32 34 29 24 22 18 18 24 25 32 36 33 32 41 54 56 52 50 48 53 61 60
96 96 55 75 75 66 64 63 60 65 68 61 60 45 34 32 43 46 46 51 55 73 90 84 85 76 60 62 60 69 82 82
94 95 96 97 96 87 89 78 82 73 72 74 69 68 63 77 70 86 85 80 90 82 86 82 86 78 76 72 72 76 91 87
65 68 92 97 95 93 94 96 95 94 92 95 96 93 95 93 93 92 95 91 98 96 95 96 96 97 92 96 93 83 87 99
63 53 58 84 92 94 93 92 92 97 90 89 97 97 96 96 95 95 97 96 97 97 97 96 97 96 95 95 96 97 97 94
77 79 65 53 62 76 80 65 72 88 82 94 88 80 94 95 92 96 97 89 83 81 94 83 87 88 89 95 89 82 90 91
62 71 62 64 67 79 80 91 85 85 97 98 80 86 88 96 96 96 96 96 95 94 78 71 71 63 75 81 83 90 64 60
54 56 54 62 73 78 89 91 90 89 84 77 83 84 92 94 95 95 96 96 97 96 96 90 80 77 72 66 72 76 72 56
50 51 58 64 65 79 86 84 76 74 70 45 40 38 45 58 71 82 77 80 91 91 92 93 93 95 86 94 89 70 66 90
62 63 64 66 71 76 77 76 75 73 50 43 45 31 28 28 28 26 43 60 68 72 73 84 96 93 95 85 86 86 63 67
82 71 66 66 67 66 66 60 57 59 47 38 46 43 41 43 34 24 22 17 34 53 62 64 76 82 91 100 93 90 95 85
73 59 51 50 52 57 55 50 45 42 40 34 34 41 45 39 27 14 12 14 24 37 44 57 58 53 54 62 89 97 91 85
62 53 46 45 45 47 49 55 53 52 52 52 52 50 41 23 9 11 17 19 24 36 44 46 46 43 40 46 56 68 90 94
70 58 49 47 52 58 58 56 51 37 20 21 17 10 9 12 15 18 24 27 42 52 54 56 58 64 60 46 48 58 72 89
64 27 35 19 12 17 22 14 10 11 12 14 22 34 39 44 45 49 50 51 52 53 57 64 67 70 73 77 76 65 59 67
14 8 8 8 8 8 12 21 31 35 36 39 43 49 55 53 52 53 54 53 53 51 49 48 49 51 55 59 66 78 87 70
8 8 10 16 28 40 44 50 50 47 47 49 52 52 41 27 16 10 7 6 5 5 5 5 6 7 11 21 38 54 59 71
9 9 14 23 31 34 40 47 53 52 48 35 15 8 6 5 4 4 4 4 4 4 4 4 4 4 4 4 4 5 8 29